HK4D-15 Weather Reports


Display with metric or nautical units.
time (UTC)temp
F
wind
direction
speed
MPH
gust
MPH
rain 1hr
in
rain 24hr
in
rain mn
in
humidity
%
barometer
mb
20260504150159 61 0 0.0 0.0 0.00 0.00 0.00 88 1015.0
20260504140654 60 0 0.0 0.0 0.00 0.00 0.00 95 1016.0
20260504100429 59 20 3.0 0.0 0.00 0.00 0.00 95 1015.0
20260504081420 59 20 3.0 0.0 0.00 0.00 0.00 97 1015.0
20260504080320 59 20 3.0 0.0 0.00 0.00 0.00 99 1015.0
20260504060208 61 20 3.0 0.0 0.06 0.00 0.00 98 1016.0
20260504050704 61 20 3.0 0.0 0.09 0.00 0.00 96 1017.0
20260504045603 61 20 3.0 0.0 0.04 0.00 0.00 94 1017.0
20260504044503 61 20 3.0 0.0 0.06 0.00 0.00 94 1017.0
20260504043402 61 20 3.0 0.0 0.01 0.00 0.00 94 1017.0
20260504042300 61 20 3.0 0.0 0.00 0.00 0.00 94 1018.0
20260504041200 61 20 3.0 0.0 0.00 0.00 0.00 94 1018.0
20260504040056 62 20 3.0 0.0 0.00 0.00 0.00 94 1018.0
20260504034956 62 20 3.0 0.0 0.00 0.00 0.00 94 1018.0
20260504033855 62 20 3.0 0.0 0.00 0.00 0.00 94 1018.0
20260504032754 62 20 3.0 0.0 0.00 0.00 0.00 94 1018.0
20260504031654 62 20 3.0 0.0 0.00 0.00 0.00 94 1018.0
20260504030552 62 20 3.0 0.0 0.00 0.00 0.00 94 1018.0
20260504025451 62 10 3.0 0.0 0.00 0.00 0.00 94 1018.0
20260504024350 62 10 3.0 0.0 0.00 0.00 0.00 94 1018.0
20260504023249 62 10 3.0 0.0 0.00 0.00 0.00 94 1018.0
20260504022149 62 10 3.0 0.0 0.00 0.00 0.00 94 1017.0
20260504021048 62 10 3.0 0.0 0.00 0.00 0.00 94 1017.0
20260504015948 64 0 2.0 0.0 0.01 0.00 0.00 88 1017.0
20260504014847 64 0 2.0 0.0 0.01 0.00 0.00 88 1017.0
20260504013747 64 0 2.0 0.0 0.00 0.00 0.00 88 1017.0
20260504012646 64 0 2.0 0.0 0.00 0.00 0.00 88 1016.0
20260504011544 64 0 2.0 0.0 0.00 0.00 0.00 88 1016.0
20260504010444 66 0 2.0 0.0 0.00 0.00 0.00 77 1016.0
20260504005342 66 0 2.0 0.0 0.00 0.00 0.00 77 1016.0
20260504004241 66 0 2.0 0.0 0.00 0.00 0.00 77 1016.0
20260504003141 66 0 2.0 0.0 0.00 0.00 0.00 77 1016.0
20260504002040 66 0 2.0 0.0 0.00 0.00 0.00 77 1015.0
20260504000940 66 0 2.0 0.0 0.00 0.00 0.00 77 1015.0
20260503235838 70 0 3.0 0.0 0.00 0.00 0.00 64 1015.0
20260503234737 70 0 3.0 0.0 0.00 0.00 0.00 64 1015.0
20260503233636 70 0 3.0 0.0 0.00 0.00 0.00 64 1015.0
20260503232535 70 0 3.0 0.0 0.00 0.00 0.00 64 1014.0
20260503231435 70 0 3.0 0.0 0.00 0.00 0.00 64 1014.0
20260503230334 73 0 4.0 0.0 0.00 0.00 0.00 53 1014.0
20260503225233 73 0 4.0 0.0 0.00 0.00 0.00 53 1014.0
20260503224133 73 0 4.0 0.0 0.00 0.00 0.00 53 1014.0
20260503223032 73 0 4.0 0.0 0.00 0.00 0.00 53 1013.0
20260503221931 73 0 4.0 0.0 0.00 0.00 0.00 53 1012.0
20260503220825 73 0 4.0 0.0 0.00 0.00 0.00 53 1012.0
20260503215724 73 0 4.0 0.0 0.00 0.00 0.00 56 1012.0
20260503214624 73 0 4.0 0.0 0.00 0.00 0.00 56 1012.0
20260503213521 73 0 4.0 0.0 0.00 0.00 0.00 56 1012.0
20260503212420 73 0 4.0 0.0 0.00 0.00 0.00 56 1012.0
20260503211319 73 0 4.0 0.0 0.00 0.00 0.00 56 1012.0
20260503210219 75 0 3.0 0.0 0.00 0.00 0.00 53 1012.0
20260503205118 75 0 3.0 0.0 0.00 0.00 0.00 53 1012.0
20260503204017 75 0 3.0 0.0 0.00 0.00 0.00 53 1012.0
20260503202916 75 0 3.0 0.0 0.00 0.00 0.00 53 1012.0
20260503201816 75 0 3.0 0.0 0.00 0.00 0.00 53 1012.0
20260503200713 73 0 6.0 0.0 0.00 0.00 0.00 56 1012.0
20260503195613 73 0 6.0 0.0 0.00 0.00 0.00 56 1012.0
20260503194512 73 0 6.0 0.0 0.00 0.00 0.00 56 1012.0
20260503193410 72 0 6.0 0.0 0.00 0.00 0.00 57 1012.0
20260503192310 72 0 6.0 0.0 0.00 0.00 0.00 57 1012.0
20260503191209 72 0 6.0 0.0 0.00 0.00 0.00 58 1012.0
20260503190108 71 140 5.0 0.0 0.00 0.00 0.00 60 1012.0
20260503185008 71 140 5.0 0.0 0.00 0.00 0.00 60 1012.0
20260503183908 71 140 5.0 0.0 0.00 0.00 0.00 60 1013.0
20260503182806 71 140 5.0 0.0 0.00 0.00 0.00 60 1014.0
20260503181700 71 140 5.0 0.0 0.00 0.00 0.00 61 1014.0
20260503180559 71 140 5.0 0.0 0.00 0.00 0.00 62 1014.0
20260503175459 71 0 5.0 0.0 0.00 0.00 0.00 64 1014.0
20260503174357 71 0 5.0 0.0 0.00 0.00 0.00 64 1014.0
20260503173256 71 0 5.0 0.0 0.00 0.00 0.00 64 1015.0
20260503172156 71 0 5.0 0.0 0.00 0.00 0.00 64 1015.0
20260503171056 71 0 5.0 0.0 0.00 0.00 0.00 65 1015.0
20260503150939 66 0 2.0 0.0 0.00 0.00 0.00 77 1017.0